Tracking 28902 objects as of 19-May-2024
HD Live streaming from Space Station
objects crossing your sky now

CZ-3C DEB

Track CZ-3C DEB now!


NORAD ID: 39352
Int'l Code: 2010-057S
Perigee: 684.4 km
Apogee: 36,806.6 km
Inclination: 21.1 °
Period: 660.2 minutes
Semi major axis: 25116 km
RCS: 0.6339 m2 (medium)
Launch date: October 31, 2010
Source: People's Republic of China (PRC)
Launch site: Xichang Space Center, China (XSC)

Note: This is SATELLITE DEBRIS
Your satellite tracking list
Your tracking list is empty




NASA's NSSDC Master Catalog

Two Line Element Set (TLE):
1 39352U 10057S   24138.96686596 -.00000138  00000-0 -27123-2 0  9999
2 39352  21.1100  52.5366 7190915 296.1864 302.8315  2.18104382 84423
Source of the keplerian elements: AFSPC